LKPD Weather Reports


time (UTC)temp
C
wind
direction
speed
KPH
gust
KPH
rain 1hr
cm
rain 24hr
cm
rain mn
cm
humidity
%
barometer
mb
20260502163216 23 130 8.0 0.0 0.00 0.00 0.00 27 1019.0
20260502161939 23 140 8.0 0.0 0.00 0.00 0.00 25
20260502160225 23 0 3.2 0.0 0.00 0.00 0.00 27 1020.0
20260502151907 23 140 3.2 0.0 0.00 0.00 0.00 25
20260502150218 23 0 3.2 0.0 0.00 0.00 0.00 25 1020.0
20260502130218 23 0 3.2 0.0 0.00 0.00 0.00 27 1022.0
20260502123217 22 0 3.2 0.0 0.00 0.00 0.00 27 1022.0
20260502121943 22 250 8.0 0.0 0.00 0.00 0.00 29
20260502120225 22 160 8.0 0.0 0.00 0.00 0.00 30 1023.0
20260502113217 22 290 9.7 0.0 0.00 0.00 0.00 28 1023.0
20260502111942 22 270 8.0 0.0 0.00 0.00 0.00 30
20260502110225 21 0 3.2 0.0 0.00 0.00 0.00 32 1023.0
20260502103217 21 80 9.7 0.0 0.00 0.00 0.00 30 1024.0
20260502101942 21 80 8.0 0.0 0.00 0.00 0.00 28
20260502100220 21 50 8.0 0.0 0.00 0.00 0.00 28 1024.0
20260502090220 20 0 3.2 0.0 0.00 0.00 0.00 32 1025.0
20260502070227 12 0 3.2 0.0 0.00 0.00 0.00 58 1025.0
20260502063217 11 120 4.8 0.0 0.00 0.00 0.00 62 1025.0
20260502061942 8 130 3.2 0.0 0.00 0.00 0.00 70
20260502060220 8 100 4.8 0.0 0.00 0.00 0.00 70 1025.0
20260502053210 6 110 3.2 0.0 0.00 0.00 0.00 81 1025.0
20260502051943 6 120 3.2 0.0 0.00 0.00 0.00 75
20260502050218 5 0 1.6 0.0 0.00 0.00 0.00 80 1025.0
20260502043209 2 200 1.6 0.0 0.00 0.00 0.00 86 1025.0
20260502041944 2 0 0.0 0.0 0.00 0.00 0.00 86
20260502040220 2 0 0.0 0.0 0.00 0.00 0.00 93 1025.0
20260502033216 2 220 1.6 0.0 0.00 0.00 0.00 86 1025.0
20260502031943 2 220 3.2 0.0 0.00 0.00 0.00 86
20260502030219 2 210 1.6 0.0 0.00 0.00 0.00 86 1025.0
20260502023209 2 0 0.0 0.0 0.00 0.00 0.00 86 1025.0
20260502021942 3 0 0.0 0.0 0.00 0.00 0.00 86
20260502020219 2 0 1.6 0.0 0.00 0.00 0.00 86 1025.0
20260502013217 3 90 3.2 0.0 0.00 0.00 0.00 86 1025.0
20260502011942 5 90 3.2 0.0 0.00 0.00 0.00 75
20260502010218 3 0 1.6 0.0 0.00 0.00 0.00 86 1025.0
20260502003210 5 0 0.0 0.0 0.00 0.00 0.00 75 1025.0
20260502001941 6 140 3.2 0.0 0.00 0.00 0.00 75
20260502000218 5 0 1.6 0.0 0.00 0.00 0.00 75 1025.0
20260501233210 7 0 0.0 0.0 0.00 0.00 0.00 70 1026.0
20260501231943 7 0 0.0 0.0 0.00 0.00 0.00 70
20260501230225 7 0 0.0 0.0 0.00 0.00 0.00 75 1026.0
20260501223210 7 0 3.2 0.0 0.00 0.00 0.00 75 1026.0
20260501222042 7 210 3.2 0.0 0.00 0.00 0.00 70
20260501220225 7 0 1.6 0.0 0.00 0.00 0.00 70 1026.0
20260501213209 8 0 3.2 0.0 0.00 0.00 0.00 66 1026.0
20260501211943 8 130 3.2 0.0 0.00 0.00 0.00 66
20260501210217 10 210 4.8 0.0 0.00 0.00 0.00 61 1025.0
20260501203209 10 200 9.7 0.0 0.00 0.00 0.00 66 1025.0
20260501201943 11 200 11.3 0.0 0.00 0.00 0.00 62
20260501200218 12 0 3.2 0.0 0.00 0.00 0.00 54 1025.0
20260501193210 13 0 0.0 0.0 0.00 0.00 0.00 47 1025.0
20260501191943 16 0 0.0 0.0 0.00 0.00 0.00 38
20260501190219 16 0 0.0 0.0 0.00 0.00 0.00 41 1025.0
20260501183216 20 0 3.2 0.0 0.00 0.00 0.00 28 1025.0
20260501181942 20 20 3.2 0.0 0.00 0.00 0.00 28
20260501180219 20 10 8.0 0.0 0.00 0.00 0.00 28 1025.0
20260501173216 21 30 4.8 0.0 0.00 0.00 0.00 28 1024.0
20260501171942 21 30 8.0 0.0 0.00 0.00 0.00 28
20260501170219 21 40 9.7 0.0 0.00 0.00 0.00 28 1024.0